Faa'a International Airport

Jump to: basic info | weather | frequencies | runways | comments

Related pages: nearby airports | nearby navaids | notams | map

Basic information (top)

Codes: PPT NTAA
Location: lon -17.553699, lat -149.606995, elev 5 ft / 2 m msl
Status: medium_airport
Scheduled airline service: yes
Links: Wikipedia Mobile

Weather (top)

Current conditions (rec'd 2015/03/02 03:00Z):

NTAA 020300Z VRB04KT 9999 FEW026 30/22 Q1009 WS R04 NOSIG

Airport forecast (rec'd 2015/03/01 00:00Z):

TAF NTAA 012300Z 0200/0306 05015KT 9999 FEW020 
      BECMG 0204/0206 VRB02KT PROB30 
      TEMPO 0202/0212 06016G26KT 5000 SHRA SCT018 BKN040 
      BECMG 0219/0221 05015KT PROB30 
      TEMPO 0302/0306 05015G25KT 5000 SHRA SCT018 BKN040

Frequencies (top)

Verify before use: may be inaccurate or out of date.

APP: 118.1 MHz (APP)
ATIS: 128.8 MHz (ATIS)
GND: 121.9 MHz (GND)
TWR: 118.1 MHz (TWR)

Runways (top)

04/22: 11,360 x 148 ft (3,463 x 45 m) — paved — lighted — threshold 04 displaced 1,120 ft (341 m) — threshold 22 displaced 390 ft (119 m)

Latest comments (top)

Fa'a'a international Airport: a great hot country [read]

More... (top)

See also NOTAMs and nearby airports and navaids, or visit the Faa'a International Airport page at the main OurAirports website..